This is the latest recevied weather packets stored in our database for station/object AC8UJ. If no packets are shown the sender has not sent any weather packets the latest 10 day(s).
| Time | Temp. | Humidity | Pressure | Rain* | Wind** | Luminosity | Snow |
|---|---|---|---|---|---|---|---|
| 1777591558 | 13.89° C | 43% | - | 0 mm | - | - | - |
| 1777590315 | 13.89° C | 43% | - | 0 mm | - | - | - |
| 1777580116 | 14.44° C | 41% | - | 0 mm | - | - | - |
| 1777577758 | 14.44° C | 42% | - | 0 mm | - | - | - |
| 1777575920 | 14.44° C | 42% | - | 0 mm | - | - | - |
| 1777574717 | 13.89° C | 41% | - | 0 mm | - | - | - |
| 1777572336 | 13.89° C | 44% | - | 0 mm | - | - | - |
| 1777565138 | 11.67° C | 58% | - | 0 mm | - | - | - |
| 1777563939 | 11.67° C | 62% | - | 0 mm | - | - | - |
| 1777556717 | 7.22° C | 79% | - | 0 mm | - | - | - |
| 1777554317 | 6.67° C | 80% | - | 0 mm | - | - | - |
| 1777550717 | 5.56° C | 83% | - | 0 mm | - | - | - |
| 1777548317 | 5° C | 84% | - | 0 mm | - | - | - |
| 1777547117 | 5° C | 85% | - | 0 mm | - | - | - |
| 1777536915 | 7.22° C | 79% | - | 0 mm | - | - | - |
| 1777536315 | 7.22° C | 79% | - | 0 mm | - | - | - |
| 1777534539 | 7.22° C | 81% | - | 0 mm | - | - | - |
| 1777533317 | 7.78° C | 82% | - | 0 mm | - | - | - |
| 1777530916 | 7.78° C | 81% | - | 0 mm | - | - | - |
| 1777528535 | 8.33° C | 80% | - | 0 mm | - | - | - |
| 1777526137 | 8.89° C | 77% | - | 0 mm | - | - | - |
| 1777523116 | 10° C | 75% | - | 0 mm | - | - | - |
| 1777521317 | 10.56° C | 73% | - | 0 mm | - | - | - |
| 1777520717 | 11.11° C | 72% | - | 0 mm | - | - | - |
| 1777514116 | 12.78° C | 70% | - | 0 mm | - | - | - |
* Rain latest hour (hover to see other rain measurements)
** Current wind speed in m/s (hover to see current wind gust speed)